Regional Weather Roundup
Issued by NWS Goodland, KS

Home | Current Version | Previous Version | Text Only | Print | Product List | Glossary Off
Versions: 1 2 3 4 5 6 7 8 9 10 11 12 13 14 15 16 17 18 19 20 21 22 23 24 25 26 27 28 29 30 31 32 33 34 35 36 37 38 39 40 41 42 43 44 45 46 47 48 49 50

630
ASUS43 KGLD 171259
RWRGLD

GOODLAND FORECAST AREA HOURLY WEATHER ROUNDUP
NATIONAL WEATHER SERVICE GOODLAND KS
700 AM MDT TUE OCT 17 2017

...OFFICIAL OBSERVATIONS...

CITY           SKY/WX    TMP DP  RH WIND       PRES   REMARKS
GOODLAND KS    CLOUDY    36  29  75 W8        30.17S
HILL CITY KS   CLEAR     42  35  76 W6        30.12S
IMPERIAL NEB   CLOUDY    36  28  73 W6        30.18S
MCCOOK NEB     CLEAR     35  32  88 SW8       30.15S
AKRON CO       CLOUDY    40  20  44 W15       30.22S
BURLINGTON CO  CLOUDY    36  27  69 W9        30.20S
LIMON CO       CLOUDY    25  21  85 NW3       30.26S
$$

...UNOFFICIAL OBSERVATIONS...

CITY           SKY/WX    TMP DP  RH WIND       PRES   REMARKS
NORTON KS      CLEAR     39  30  70 W5        30.12R
TRENTON NEB      N/A     40  32  73 NW7         N/A
YUMA CO        FAIR      32  27  80 W8        30.20S
$$




USA.gov is the U.S. government's official web portal to all federal, state and local government web resources and services.